www.pogodaiklimat.ru

Погода и климат >> Архив погоды >> Индия >> Jhansi


ПОГОДА в Jhansi

  • Прогноз погоды в Jhansi
  • Монитор погоды в Jhansi
  • Климат города

АРХИВ ПОГОДЫ в Jhansi

Время (UTC), дата Ветер
(напр.,м/с)
 
Видим.   Явления Облачность Т
(С)
Тd
(С)
f
(%)
Тe
(С)
Тes
(С)
Комфортность P
(гПа)
Po
(гПа)
Тmin
(С)
Tmax
(С)
R
(мм)
R24
(мм)
S
(см)
06 19.05 СЗ 2 4000 м 3/0
[Ac trans]
+40.6 +21.9 34 +48 +65 опасность
перегрева
1005.3 1005.0
09 19.05 З 3 4000 м в посл. час гроза {дождь} 10/6 750 м
[Cb calv As op]
+38.0 +24.2 46 +50 +51 опасность
перегрева
1005.4 1005.0 0.6
12 19.05 СВ 2 4000 м 5/4 1050 м
[Cu med, cong Ac trans]
+35.6 +21.6 44 +43 +44 опасность
перегрева
1003.2 1003.0 +42.6 0.6
03 20.05 З 2 4000 м ясно +34.0 +21.0 47 +41 +51 опасность
перегрева
1005.9 1006.0 +26.7 +42.6 0.6
06 20.05 СЗ 2 4000 м ясно +40.4 +22.3 36 +49 +72 опасность
перегрева
1005.0 1005.0
09 20.05 СЗ 1 4000 м 4/0
[Ac trans Ci fib]
+43.0 +22.9 32 +51 +67 опасность
перегрева
1001.7 1002.0
12 20.05 З 1 2000 м мгла {гроза} 8/5 900 м
[Cu Sc Ac trans]
+33.0 +22.0 52 +41 +42 опасность
перегрева
999.4 999.0 +43.4
03 21.05 З 2 4000 м ясно +35.6 +21.0 43 +43 +52 опасность
перегрева
1004.3 1004.0 +28.6 +43.4
06 21.05 З 2 4000 м ясно +40.8 +22.9 36 +50 +71 опасность
перегрева
1003.7 1004.0
09 21.05 З 3 4000 м 5/4 1050 м
[Cu med, cong Ac trans]
+42.0 +25.1 39 +55 +63 опасность
перегрева
1002.4 1002.0
12 21.05 ЮЗ 1 4000 м 3/0
[Ac trans]
+42.2 +23.6 35 +52 +54 опасность
перегрева
999.2 999.0 +43.1
03 22.05 штиль 0 4000 м ясно +32.0 +20.3 50 +39 +50 очень
душно
1007.8 1008.0 +28.7 +43.1
06 22.05 СЗ 1 4000 м ясно +37.4 +21.7 40 +45 +70 опасность
перегрева
1006.5 1007.0
09 22.05 З 2 4000 м 3/3 1050 м
[Cu hum Ac trans]
+40.0 +23.2 38 +49 +61 опасность
перегрева
1004.0 1004.0
12 22.05 З 5 4000 м 4/3 1050 м
[Cu hum Ac trans]
+40.0 +22.2 36 +48 +49 опасность
перегрева
1002.2 1002.0 +41.2
03 23.05 З 1 4000 м ясно +34.6 +21.7 47 +43 +53 опасность
перегрева
1008.1 1008.0 +28.0 +41.2
06 23.05 З 1 4000 м ясно +39.0 +20.1 34 +45 +70 опасность
перегрева
1007.3 1007.0
09 23.05 СЗ 2 4000 м 5/0
[Ac trans Ci fib]
+41.0 +22.8 36 +50 +64 опасность
перегрева
1003.9 1004.0
12 23.05 СЗ 2 4000 м 3/0
[Ac trans]
+41.2 +21.5 33 +48 +50 опасность
перегрева
1001.9 1002.0 +42.1
03 24.05 штиль 0 4000 м ясно +35.0 +20.4 43 +42 +53 опасность
перегрева
1007.4 1007.0 +30.0 +42.1
06 24.05 З 1 4000 м ясно +39.4 +21.7 36 +47 +72 опасность
перегрева
1005.5 1006.0
09 24.05 ЮЗ 1 4000 м 4/3 1050 м
[Cu hum Ac trans]
+42.4 +13.8 19 +43 +55 опасность
перегрева
1002.2 1002.0
12 24.05 З 1 4000 м 4/3 1050 м
[Cu hum Ac trans]
+42.0 +14.6 20 +43 +44 опасность
перегрева
999.7 1000.0 +43.4
03 25.05 З 1 4000 м 4/3 1050 м
[Cu hum Ac trans]
+36.0 +15.8 30 +38 +44 очень
душно
1004.7 1005.0 +30.1 +43.4
06 25.05 З 2 4000 м ясно +40.6 +14.7 22 +41 +64 опасность
перегрева
1003.3 1003.0
09 25.05 З 2 4000 м 3/0
[Ac trans]
+42.8 +15.5 21 +44 +58 опасность
перегрева
1001.2 1001.0
12 25.05 ЮЗ 1 4000 м ясно +42.2 +15.9 22 +44 +46 опасность
перегрева
999.2 999.0 +43.5
03 26.05 штиль 0 4000 м ясно +36.4 +17.7 33 +40 +51 опасность
солнечного
удара
1002.7 1003.0 +31.3 +43.5

 

Местоположение метеостанции Jhansi (Uttar Pradesh, Индия): широта 25.45 долгота 78.62 высота над уровнем моря 258 м.

В архиве по умолчанию представлена погода в Jhansi за последнюю неделю. Архивные данные за месяц целиком и за предыдущие месяцы, начиная с января 2011 года, Вы можете получить, выбрав интересующий диапазон дат из раскрывающегося списка и нажав кнопку "Ввод!".

Внимание! Время в таблицах - всемирное. Для получения местного времени необходимо прибавить поправку, которая в Jhansi равна 5.5 ч.

Смотрите также архив погоды в соседних городах и на ближайших метеорологических станциях:

Погода в Tikamgarh (Madhya Pradesh, Индия) (79 км)
Погода в Nowgong (Madhya Pradesh, Индия) (94 км)
Погода в Gwalior (Madhya Pradesh, Индия) (94 км)
Погода в Shivpuri (Madhya Pradesh, Индия) (98 км)
Погода в Khajuraho (Madhya Pradesh, Индия) (141 км)
Погода в Guna (Madhya Pradesh, Индия) (158 км)
Погода в Hamirpur (Uttar Pradesh, Индия) (163 км)
Погода в Banda (Uttar Pradesh, Индия) (176 км)
Погода в Sagar (Madhya Pradesh, Индия) (178 км)
Погода в Sheopur (Madhya Pradesh, Индия) (196 км)

Пояснения к столбцам:

Ветер - указаны скорость ветра в м/с - средняя за 10 мин, порывы в срок и между сроками (в фигурных скобках) и направление, откуда дует ветер: С - северный, СВ - северо-восточный, В - восточный, ЮВ - юго-восточный, Ю - южный, ЮЗ - юго-западный, З - западный, СЗ - северо-западный.
Видимость - горизонтальная дальность видимости в метрах или километрах. При видимости от 1 до 10 км при отсутствии осадков обычно наблюдается дымка, при ухудшении видимости до 1 км и менее - туман. В сухую погоду видимость может ухудшаться дымом, пылью или мглою.
Явления - указаны атмосферные явления, наблюдавшиеся в срок или в последний час перед сроком; фигурными скобками обозначены явления, наблюдавшиеся между сроками (за 1-3 часа до срока); квадратными скобками обозначены град или гололедные отложения с указанием их диаметра в мм.
Облачность - указаны через наклонную черту общая и нижняя облачность в баллах и высота нижней границы облаков в метрах; квадратными скобками обозначены формы облаков: Ci - перистые, Cs - перисто-слоистые, Cc - перисто-кучевые, Ac - высококучевые, As - высокослоистые, Sc - слоисто-кучевые, Ns - слоисто-дождевые, Cu - кучевые, Cb - кучево-дождевые. Подробнее классификацию облаков см. в Атласе облаков (PDF).
T - Температура воздуха - температура, измеренная на высоте 2 м над землей.
Td - Температура точки росы - температура, при понижении до которой содержащийся в воздухе водяной пар достигнет насыщения.
f - Относительная влажность воздуха - влажноcть воздуха, измеренная на высоте 2 м над землей.
Te - Эффективная температура - температура, которую ощущает одетый по сезону человек в тени. Характеристика душности погоды. При расчете учитывается влияние влажности воздуха и скорости ветра на теплоощущения человека.
Tes - Эффективная температура на солнце - температура, которую ощущает человек, с поправкой на солнечный нагрев. Характеристика знойности погоды. Зависит от высоты солнца над горизонтом, облачности и скорости ветра. Ночью, в пасмурную погоду, а также при ветре 12 м/с и более поправка равна нулю.
P - Атмосферное давление - приведенное к уровню моря атмосферное давление.
Po - Атмосферное давление - измеренное на уровне метеостанции атмосферное давление.
Tmin - Минимальная температура - минимум температуры воздуха на высоте 2 м над землей.
Tmax - Максимальная температура - максимум температуры воздуха на высоте 2 м над землей.
R - Количество осадков - Количество выпавших осадков за период времени, мм. При наведении курсора мыши на число - период времени, за который выпало указанное количество осадков.
R24 - Количество осадков - Количество выпавших осадков за 24 часа, мм.
S - Снежный покров - Высота снежного покрова, см. При наведении курсора мыши на число - состояние снежного покрова и степень покрытия местности в баллах.